[[{"header":{"parameterUnit":"m.s-1","parameterCategory":1,"la1":30.2991,"la2":30.254,"lo1":-89.0895,"lo2":-89.0444,"dy":0.0017,"dx":0.0017,"nx":28,"ny":28,"refTime":"2025-01-27T09:00:00:Z","depth":0,"parameterNumber":2,"parameterNumberName":"U-component_of_WINDS"},"data":[0,0,0,0,0,0,0,0,0,0,0,0,0,0,0,0,0,0,0,0,0,0,0,0,0,0,0,0,0,0,0,0,0,0,0,0,0,0,0,0,0,0,0,0,0,0,0,0,0,0,0,0,0,0,0,0,0,0,-0.4886,-0.4886,0,-0.4888,-0.4888,-0.4888,-0.4876,-0.4876,-0.4875,-0.4875,-0.4877,-0.4877,-0.4878,0,0,0,0,0,0,0,0,0,0,0,0,0,-0.4871,-0.4871,-0.4886,-0.4886,-0.4886,-0.4888,-0.4888,-0.4888,-0.4876,-0.4876,-0.4875,-0.4875,-0.4877,-0.4877,-0.4878,0,0,0,0,0,0,0,0,0,0,0,0,0,-0.4876,-0.4871,-0.4886,-0.488,-0.488,-0.4888,-0.4888,-0.4889,-0.4876,-0.4876,-0.4875,-0.4875,-0.4877,-0.4877,-0.4878,-0.4892,0,0,-0.488,-0.488,0,0,0,0,0,0,0,0,-0.4875,-0.4876,-0.4881,-0.4881,-0.488,-0.4882,-0.4884,-0.489,-0.4876,-0.4878,-0.4875,-0.4875,-0.4879,-0.4879,-0.4881,-0.4892,-0.4892,-0.488,-0.488,-0.488,-0.488,0,0,0,0,0,0,0,-0.4875,-0.4876,-0.4887,-0.4881,-0.4881,-0.4877,-0.4878,-0.4885,-0.4881,-0.4878,-0.4877,-0.4877,-0.4879,-0.488,-0.4881,-0.4892,-0.488,-0.488,-0.4881,-0.4881,-0.4915,-0.4915,0,0,0,0,0,0,-0.4876,-0.4876,-0.4887,-0.4887,-0.4877,-0.4878,-0.4878,-0.4882,-0.4881,-0.4881,-0.4878,-0.4877,-0.488,-0.488,-0.4881,-0.4898,-0.488,-0.4881,-0.4881,-0.4914,-0.4915,-0.4916,0,0,0,0,0,0,-0.4875,-0.4877,-0.4887,-0.4881,-0.4882,-0.4879,-0.4883,-0.4882,-0.4884,-0.4881,-0.488,-0.488,-0.4879,-0.488,-0.4889,-0.4897,-0.4881,-0.4882,-0.4914,-0.4915,-0.4915,-0.4931,0,0,0,0,0,0,-0.4875,-0.4877,-0.4882,-0.4881,-0.4883,-0.4896,-0.4883,-0.4882,-0.4885,-0.4883,-0.4883,-0.4883,-0.4879,-0.4889,-0.489,-0.4898,-0.4882,-0.4913,-0.4914,-0.4915,-0.493,-0.4932,-0.4934,0,0,0,0,0,-0.4874,-0.4886,-0.4883,-0.4884,-0.489,-0.4896,-0.4897,-0.4892,-0.4886,-0.4891,-0.4889,-0.4883,-0.4896,-0.489,-0.4891,-0.4899,-0.4912,-0.4914,-0.4915,-0.4929,-0.4932,-0.4934,0,0,0,0,0,0,-0.4888,-0.4886,-0.4882,-0.4894,-0.4895,-0.4894,-0.4901,-0.4896,-0.4899,-0.4897,-0.4891,-0.4891,-0.4902,-0.4901,-0.4894,-0.4913,-0.4903,-0.4905,-0.4913,-0.4916,-0.4918,-0.4919,-0.4883,0,0,0,0,0,-0.4893,-0.4898,-0.4896,-0.4907,-0.4908,-0.4904,-0.4907,-0.4903,-0.4904,-0.4905,-0.4904,-0.4905,-0.4909,-0.4912,-0.4916,-0.4929,-0.4929,-0.4936,-0.4938,-0.494,-0.4942,-0.4949,-0.4952,-0.492,-0.492,-0.492,0,0,-0.4902,-0.4902,-0.4906,-0.491,-0.491,-0.4916,-0.4905,-0.4912,-0.4916,-0.4906,-0.4915,-0.4914,-0.4915,-0.4926,-0.4931,-0.4926,-0.495,-0.4941,-0.4943,-0.4944,-0.495,-0.4953,-0.4956,-0.4921,-0.4921,-0.492,0,0,-0.4922,-0.4922,-0.4932,-0.4932,-0.4933,-0.4931,-0.4933,-0.4932,-0.4931,-0.494,-0.4933,-0.4937,-0.4945,-0.4946,-0.4948,-0.4967,-0.4962,-0.4969,-0.4981,-0.4988,-0.4991,-0.4993,-0.5001,-0.5003,-0.497,-0.497,-0.497,0,-0.4934,-0.4943,-0.4937,-0.4944,-0.4947,-0.4937,-0.4947,-0.4947,-0.495,-0.4951,-0.4945,-0.4955,-0.4955,-0.4966,-0.4971,-0.4972,-0.4975,-0.4969,-0.4991,-0.4993,-0.4995,-0.5002,-0.5005,-0.4971,-0.4971,-0.4971,-0.4971,0,-0.4957,-0.4963,-0.497,-0.4973,-0.4976,-0.4984,-0.4979,-0.4983,-0.4979,-0.4977,-0.4985,-0.4985,-0.4989,-0.4991,-0.4987,-0.5002,-0.4999,-0.4992,-0.4982,-0.4999,-0.5006,-0.5009,-0.4973,-0.4972,-0.4972,-0.4972,0,0,-0.4987,-0.4986,-0.4989,-0.499,-0.499,-0.4994,-0.5002,-0.5006,-0.5009,-0.501,-0.5017,-0.5023,-0.5017,-0.5019,-0.5014,-0.502,-0.5037,-0.5013,-0.5013,-0.5018,-0.5054,-0.506,-0.5063,-0.5033,-0.5033,-0.5033,-0.5054,0,-0.5007,-0.5021,-0.5016,-0.503,-0.5035,-0.5026,-0.5033,-0.5033,-0.5031,-0.5036,-0.5033,-0.5038,-0.5029,-0.503,-0.5036,-0.5034,-0.5044,-0.5032,-0.5039,-0.5039,-0.504,-0.5066,-0.5072,-0.5092,-0.5056,-0.5057,-0.5057,0,-0.5033,-0.5036,-0.5051,-0.5049,-0.5052,-0.5058,-0.5061,-0.5065,-0.5065,-0.5063,-0.5065,-0.5059,-0.5066,-0.5056,-0.5066,-0.5058,-0.506,-0.5059,-0.506,-0.5061,-0.505,-0.5069,-0.5098,-0.5101,-0.5061,-0.5061,-0.5061,0,-0.5055,-0.5062,-0.5071,-0.5072,-0.5071,-0.5076,-0.5075,-0.5075,-0.5078,-0.508,-0.5082,-0.5084,-0.5086,-0.5089,-0.5084,-0.5077,-0.5095,-0.5084,-0.5094,-0.5094,-0.5099,-0.5099,-0.513,-0.5099,-0.5099,-0.5099,-0.5099,0,-0.5079,-0.5088,-0.5081,-0.5087,-0.5097,-0.5091,-0.5101,-0.5099,-0.5099,-0.5105,-0.5096,-0.5102,-0.5095,-0.5099,-0.5095,-0.5104,-0.5105,-0.5104,-0.5103,-0.5105,-0.5106,-0.5108,-0.5106,-0.51,-0.5099,-0.5099,-0.5099,0,-0.5105,-0.5101,-0.511,-0.5108,-0.5108,-0.5116,-0.5114,-0.5119,-0.5116,-0.5123,-0.5124,-0.512,-0.5125,-0.512,-0.5124,-0.5122,-0.5134,-0.5131,-0.5134,-0.5134,-0.5144,-0.5144,-0.5178,-0.5182,-0.5148,-0.5148,-0.5149,0,-0.5121,-0.5128,-0.5127,-0.513,-0.513,-0.5135,-0.5137,-0.5131,-0.5134,-0.5134,-0.514,-0.5144,-0.5147,-0.5155,-0.5152,-0.5156,-0.5153,-0.5165,-0.5153,-0.5156,-0.5154,-0.5154,-0.5155,-0.5167,-0.5168,-0.5168,-0.5168,0,-0.515,-0.5148,-0.5152,-0.5155,-0.5158,-0.516,-0.5161,-0.5164,-0.5158,-0.5161,-0.5166,-0.5168,-0.5173,-0.5177,-0.518,-0.5179,-0.5173,-0.5172,-0.5174,-0.5177,-0.5179,-0.5179,-0.5142,-0.5171,-0.5171,-0.5171,-0.517,-0.517,-0.5173,-0.5178,-0.5178,-0.5183,-0.5183,-0.5185,-0.519,-0.5187,-0.5191,-0.5195,-0.519,-0.5196,-0.5196,-0.5199,-0.5199,-0.5204,-0.5199,-0.5202,-0.5203,-0.5205,-0.5207,-0.5178,-0.5204,-0.5204,-0.5204,-0.5204,-0.5203,0,-0.5202,-0.5201,-0.5206,-0.5208,-0.5211,-0.5204,-0.5206,-0.5209,-0.5215,-0.5215,-0.5218,-0.5224,-0.5228,-0.5225,-0.5228,-0.5233,-0.523,-0.5234,-0.5234,-0.5234,-0.521,-0.5208,-0.5236,-0.5236,-0.5236,-0.5236,-0.5236,-0.5236,-0.5218,-0.5228,-0.5225,-0.5235,-0.5234,-0.524,-0.5241,-0.5242,-0.5242,-0.5249,-0.5253,-0.525,-0.525,-0.5253,-0.5256,-0.5255,-0.5257,-0.5262,-0.5261,-0.5239,-0.5236,-0.5233,-0.5231,-0.5263,-0.5263,-0.5284,-0.5284,-0.5284]},{"header":{"parameterUnit":"m.s-1","parameterCategory":1,"la1":30.2991,"la2":30.254,"lo1":-89.0895,"lo2":-89.0444,"dy":0.0017,"dx":0.0017,"nx":28,"ny":28,"refTime":"2025-01-27T09:00:00:Z","depth":0,"parameterNumber":3,"parameterNumberName":"V-component_of_WINDS"},"data":[0,0,0,0,0,0,0,0,0,0,0,0,0,0,0,0,0,0,0,0,0,0,0,0,0,0,0,0,0,0,0,0,0,0,0,0,0,0,0,0,0,0,0,0,0,0,0,0,0,0,0,0,0,0,0,0,0,0,-0.0025,-0.0026,0,-0.0079,-0.0079,-0.008,-0.0103,-0.0103,-0.0103,-0.0102,-0.0158,-0.016,-0.0162,0,0,0,0,0,0,0,0,0,0,0,0,0,0.0055,0.0054,-0.0025,-0.0026,-0.0027,-0.0079,-0.0079,-0.008,-0.0103,-0.0103,-0.0103,-0.0102,-0.0158,-0.016,-0.0162,0,0,0,0,0,0,0,0,0,0,0,0,0,0.0013,0.0054,-0.0025,-0.0044,-0.0046,-0.0078,-0.0079,-0.008,-0.0103,-0.0103,-0.0102,-0.0102,-0.0157,-0.016,-0.0162,-0.0179,0,0,-0.0169,-0.017,0,0,0,0,0,0,0,0,0.0016,0.001,-0.0041,-0.0043,-0.0045,-0.0084,-0.0071,-0.0114,-0.0103,-0.0081,-0.0102,-0.0102,-0.0134,-0.0138,-0.0148,-0.0182,-0.0185,-0.0169,-0.0171,-0.0172,-0.0173,0,0,0,0,0,0,0,0.0018,0.0012,-0.0047,-0.0041,-0.0044,-0.0051,-0.0056,-0.008,-0.0108,-0.0083,-0.0085,-0.0091,-0.0135,-0.0146,-0.015,-0.0185,-0.0169,-0.0171,-0.0173,-0.0174,-0.0237,-0.0237,0,0,0,0,0,0,0.0025,0.0015,-0.0045,-0.0048,-0.0014,-0.0052,-0.0059,-0.0072,-0.0108,-0.0113,-0.0091,-0.0092,-0.0142,-0.0147,-0.0152,-0.0175,-0.0172,-0.0174,-0.0175,-0.0236,-0.0237,-0.0237,0,0,0,0,0,0,0.0027,0.002,-0.0043,-0.0017,-0.0026,-0.0054,-0.0068,-0.0073,-0.0084,-0.0113,-0.0119,-0.0097,-0.0142,-0.0149,-0.0173,-0.0177,-0.0175,-0.0177,-0.0236,-0.0236,-0.0237,-0.0221,0,0,0,0,0,0,0.0029,0.002,0.0014,-0.0017,-0.0027,-0.0062,-0.0068,-0.0074,-0.0088,-0.0089,-0.012,-0.0126,-0.0143,-0.0169,-0.0175,-0.0181,-0.0179,-0.0236,-0.0236,-0.0237,-0.0222,-0.0221,-0.0221,0,0,0,0,0,0.0032,0.002,0.0014,0.0007,-0.0035,-0.0062,-0.0068,-0.0087,-0.0088,-0.0095,-0.0114,-0.0125,-0.0176,-0.0171,-0.0178,-0.0185,-0.0236,-0.0236,-0.0237,-0.0222,-0.0221,-0.0221,0,0,0,0,0,0,0.0051,0.0016,0.0008,-0.0014,-0.0035,-0.0066,-0.0075,-0.0085,-0.0107,-0.0107,-0.013,-0.0137,-0.0159,-0.0174,-0.0168,-0.0204,-0.0207,-0.0209,-0.0193,-0.0193,-0.0192,-0.0188,-0.0181,0,0,0,0,0,0.0053,0.0035,0.0005,-0.0012,-0.0022,-0.0047,-0.0059,-0.0072,-0.0095,-0.0104,-0.0124,-0.0146,-0.0168,-0.0181,-0.0202,-0.0224,-0.0231,-0.0232,-0.0232,-0.0231,-0.0233,-0.0246,-0.0246,-0.0239,-0.0239,-0.0239,0,0,0.0056,0.0034,0.0024,-0.0009,-0.0026,-0.0045,-0.0054,-0.0073,-0.0088,-0.0107,-0.013,-0.0146,-0.0173,-0.0195,-0.0207,-0.0209,-0.0236,-0.0232,-0.0231,-0.0233,-0.0246,-0.0247,-0.0248,-0.0239,-0.0239,-0.0239,0,0,0.0052,0.0034,0.0018,0.0001,-0.0026,-0.0042,-0.0046,-0.0076,-0.0087,-0.0111,-0.0126,-0.0143,-0.0179,-0.0197,-0.0211,-0.0222,-0.0233,-0.0228,-0.0226,-0.0239,-0.024,-0.024,-0.0244,-0.0245,-0.023,-0.023,-0.023,0,0.0059,0.0031,0.0011,-0.0007,-0.0022,-0.004,-0.0056,-0.0072,-0.0104,-0.0114,-0.0116,-0.0162,-0.0181,-0.0208,-0.0211,-0.0221,-0.0227,-0.0225,-0.0238,-0.0239,-0.024,-0.0244,-0.0245,-0.0229,-0.0229,-0.0229,-0.0229,0,0.0041,0.0021,0.0012,-0.0018,-0.0034,-0.0051,-0.0074,-0.0088,-0.0099,-0.0116,-0.014,-0.0163,-0.019,-0.0197,-0.0209,-0.0227,-0.0227,-0.0233,-0.0237,-0.0239,-0.0244,-0.0245,-0.0228,-0.0228,-0.0229,-0.0229,0,0,0.0048,0.0007,0.0004,-0.001,-0.0041,-0.0057,-0.0075,-0.0101,-0.0112,-0.0133,-0.015,-0.018,-0.0186,-0.0201,-0.0216,-0.0226,-0.0234,-0.0231,-0.0232,-0.0231,-0.0255,-0.025,-0.0252,-0.0241,-0.0241,-0.0242,-0.0253,0,0.004,0.0006,-0.0012,-0.0038,-0.0056,-0.0074,-0.009,-0.0111,-0.0127,-0.0145,-0.0163,-0.0184,-0.019,-0.0199,-0.0211,-0.023,-0.0239,-0.023,-0.0257,-0.0258,-0.025,-0.0254,-0.0249,-0.0259,-0.0255,-0.0255,-0.0255,0,0.0026,0.0005,-0.0022,-0.0051,-0.006,-0.0074,-0.0099,-0.0116,-0.014,-0.0151,-0.0168,-0.0182,-0.0203,-0.0205,-0.0234,-0.0228,-0.024,-0.0251,-0.0252,-0.0255,-0.0257,-0.0258,-0.0262,-0.0264,-0.0258,-0.0258,-0.0258,0,0.0034,-0.0002,-0.0023,-0.0034,-0.0068,-0.0078,-0.0092,-0.0116,-0.0131,-0.0153,-0.0162,-0.0186,-0.02,-0.0218,-0.0239,-0.0238,-0.0266,-0.0269,-0.0276,-0.0275,-0.0281,-0.028,-0.0288,-0.0289,-0.0289,-0.0289,-0.0289,0,0.0027,0.0011,-0.002,-0.0032,-0.0051,-0.0073,-0.0091,-0.0107,-0.0128,-0.0145,-0.0162,-0.0178,-0.0204,-0.0223,-0.0239,-0.0261,-0.0267,-0.0276,-0.028,-0.0275,-0.0274,-0.0283,-0.0283,-0.0289,-0.0289,-0.0289,-0.0289,0,0.0032,0.0011,-0.0013,-0.0043,-0.0051,-0.0063,-0.009,-0.0103,-0.012,-0.0141,-0.0147,-0.0174,-0.0197,-0.0219,-0.0251,-0.0261,-0.0283,-0.0289,-0.0275,-0.0277,-0.0283,-0.0282,-0.0296,-0.0299,-0.0298,-0.0298,-0.0298,0,0.0029,0.0016,-0.0015,-0.0027,-0.0042,-0.0061,-0.0076,-0.0097,-0.0112,-0.014,-0.0151,-0.0175,-0.0196,-0.0232,-0.0255,-0.0279,-0.0285,-0.0288,-0.0289,-0.0283,-0.0285,-0.0284,-0.0285,-0.0288,-0.0288,-0.0287,-0.0287,0,0.0026,0.0016,-0.0004,-0.0027,-0.0044,-0.0063,-0.0084,-0.0093,-0.0119,-0.0134,-0.0158,-0.0174,-0.0206,-0.023,-0.0256,-0.0272,-0.0284,-0.0287,-0.029,-0.0284,-0.0276,-0.0281,-0.0274,-0.0287,-0.0287,-0.0287,-0.0287,-0.0287,0.0027,0.0015,-0.0009,-0.0031,-0.0049,-0.0067,-0.0081,-0.01,-0.012,-0.0147,-0.0159,-0.0183,-0.0207,-0.0244,-0.026,-0.028,-0.0283,-0.0287,-0.0288,-0.0288,-0.0287,-0.0273,-0.0285,-0.0285,-0.0285,-0.0285,-0.0285,0,0.0023,0.0006,-0.0013,-0.0041,-0.0058,-0.0067,-0.0091,-0.0104,-0.0125,-0.0147,-0.0167,-0.0194,-0.0218,-0.0242,-0.0267,-0.0278,-0.0284,-0.0284,-0.0283,-0.0287,-0.0283,-0.0278,-0.0279,-0.0278,-0.0278,-0.0278,-0.0278,-0.0278,0.0018,-0.0003,-0.0015,-0.0046,-0.0062,-0.0085,-0.0098,-0.0115,-0.0132,-0.0162,-0.0182,-0.0197,-0.022,-0.0247,-0.0269,-0.0276,-0.0285,-0.0283,-0.0291,-0.0287,-0.0287,-0.0287,-0.0283,-0.0284,-0.0284,-0.0293,-0.0293,-0.0293]}]]